Location: Sternwarte Hubelmatt
(47.0367°N, 8.3053°E)
Time: 21:07:47
(UTC+02:00)

First-Move - Pass Details

Date: 03 May 2024
Orbit: 537 x 600 km, 97.7° (Epoch: 25 May)

Event Time Altitude Azimuth Distance (km) Brightness Sun altitude
Rises 04:50:14 0° 14° (NNE) 2,869 ? -12.0°
Maximum altitude 04:56:41 72° 101° (ESE) 635 ? -11.1°
Drops below altitude 10° 05:00:52 10° 187° (S) 1,922 ? -10.6°
Enters shadow 05:01:47 - 188° (S) 2,296 ? -10.4°
